我用 App 记录自己跑步 4 年了,下面列表展示的是 2021 的数据


2021 Journey
74 Runs
268.8 KM
5:57 Avg Pace
2 day Streak
148 Avg Heart Rate

2020 Journey
44 Runs
153.6 KM
5:51 Avg Pace
3 day Streak
149 Avg Heart Rate

2019 Journey
79 Runs
281.5 KM
5:57 Avg Pace
4 day Streak
154 Avg Heart Rate

2018 Journey
30 Runs
83.7 KM
6:07 Avg Pace
5 day Streak
149 Avg Heart Rate

Total Journey
227 Runs
787.6 KM
5:57 Avg Pace
5 day Streak
150 Avg Heart Rate

KMPaceBPMTimeDate
清晨跑步3.16:0614618min2021-12-10 06:27:02
清晨跑步3.25:5315518min2021-12-08 06:27:25
清晨跑步3.56:1014821min2021-12-06 06:22:44
清晨跑步3.56:1014421min2021-12-03 06:20:31
清晨跑步3.56:1115121min2021-11-29 06:17:10
清晨跑步3.55:5915320min2021-11-27 06:34:16
清晨跑步3.26:1114719min2021-11-25 06:21:15
清晨跑步3.16:1715219min2021-11-23 06:14:00
清晨跑步3.16:0615218min2021-11-18 06:19:19
清晨跑步3.16:1415119min2021-11-15 06:19:41
清晨跑步3.16:1215219min2021-11-10 06:19:17
清晨跑步2.76:1514516min2021-10-29 06:21:01
清晨跑步3.26:0514819min2021-10-27 06:19:44
清晨跑步3.16:2115119min2021-10-22 06:21:05
清晨跑步3.16:1214519min2021-10-20 06:19:50
清晨跑步3.16:3214420min2021-10-11 06:12:51
清晨跑步3.26:0914319min2021-09-26 06:20:00
清晨跑步3.16:1615019min2021-09-20 06:31:57
清晨跑步3.16:2214519min2021-09-17 06:15:46
清晨跑步3.16:1915519min2021-09-14 06:12:13
清晨跑步3.16:1015419min2021-09-12 06:27:48
清晨跑步3.16:2415319min2021-09-09 06:12:45
清晨跑步3.16:3215120min2021-09-06 06:03:12
清晨跑步3.16:0114718min2021-07-27 06:12:09
清晨跑步3.16:0014818min2021-07-23 06:11:44
清晨跑步3.15:5814718min2021-07-22 06:05:13
清晨跑步3.25:5314618min2021-07-16 06:08:50
清晨跑步3.15:5714918min2021-07-14 06:05:01
清晨跑步3.16:0314118min2021-07-12 06:04:54
清晨跑步3.26:0114819min2021-07-08 05:59:29
清晨跑步3.25:5514718min2021-07-05 05:58:48
清晨跑步3.25:5215018min2021-07-04 06:22:51
清晨跑步3.16:1114219min2021-07-02 06:01:04
清晨跑步3.16:1914719min2021-06-29 05:56:03
清晨跑步4.06:0714624min2021-05-10 06:00:30
清晨跑步3.96:0615023min2021-05-06 05:58:59
清晨跑步3.66:0515021min2021-05-04 06:09:17
清晨跑步4.15:5014423min2021-04-12 06:24:34
清晨跑步4.15:4514623min2021-04-08 06:23:30
清晨跑步4.15:3514722min2021-04-06 06:16:03
清晨跑步4.15:4314523min2021-04-02 06:18:22
清晨跑步4.15:4713823min2021-04-01 06:14:59
清晨跑步4.15:4514623min2021-03-27 06:20:18
清晨跑步4.15:4114423min2021-03-25 06:13:10
清晨跑步4.15:4514923min2021-03-24 06:12:04
清晨跑步4.15:5314124min2021-03-21 06:28:52
清晨跑步4.15:4814323min2021-03-17 06:23:03
清晨跑步4.15:4314723min2021-03-15 06:24:46
清晨跑步4.15:5214524min2021-03-12 06:23:05
清晨跑步4.15:3614922min2021-03-10 06:30:53
清晨跑步4.15:4314523min2021-03-08 06:22:54
清晨跑步2.85:3714715min2021-03-06 06:36:02
清晨跑步4.15:4915323min2021-03-05 06:25:48
清晨跑步4.15:3815023min2021-03-03 06:26:52
清晨跑步3.25:5114518min2021-03-01 06:23:00
清晨跑步4.25:4514524min2021-02-28 06:23:20
清晨跑步4.25:2815122min2021-02-23 06:32:32
清晨跑步4.15:4514823min2021-02-22 06:17:21
清晨跑步4.15:3915623min2021-02-19 06:35:38
清晨跑步4.15:5014923min2021-02-17 06:29:54
清晨跑步4.15:5015023min2021-02-16 06:28:00
清晨跑步4.05:4815023min2021-02-07 06:33:32
清晨跑步4.16:0414724min2021-02-06 06:35:02
清晨跑步4.15:5714424min2021-02-02 06:32:15
清晨跑步4.15:4914723min2021-01-31 06:36:56
清晨跑步4.15:5114623min2021-01-27 06:22:58
清晨跑步4.15:5014923min2021-01-25 06:27:24
清晨跑步4.15:4315223min2021-01-24 06:38:41
清晨跑步4.15:3115322min2021-01-22 06:26:43
清晨跑步4.35:4715224min2021-01-21 06:24:10
清晨跑步4.15:5415624min2021-01-19 06:18:30
清晨跑步4.15:5415524min2021-01-18 06:15:38
清晨跑步4.15:4615123min2021-01-06 06:28:04
清晨跑步4.15:5715624min2021-01-05 06:26:03